Regional Weather Roundup
Issued by NWS

Home | Current Version | Previous Version | Text Only | Print | Product List | Glossary Off
Versions: 1 2 3 4 5 6 7 8 9 10 11 12 13 14 15 16 17 18 19 20 21 22 23 24 25 26 27 28 29 30 31 32 33 34 35 36 37 38 39 40 41 42 43 44 45 46 47 48 49 50

532
ASUS43 KOAX 260710
RWRNE

WEATHER ROUNDUP FOR NEBRASKA
NATIONAL WEATHER SERVICE OMAHA NE
200 AM CDT SUN MAR 26 2017

NOTES: SATELLITE DATA IS BEING USED TO AUGMENT CLOUD COVER ABOVE
       12000 FEET.
       "FAIR" INDICATES FEW OR NO CLOUDS BELOW 12,000 FEET WITH NO
       SIGNIFICANT WEATHER AND/OR OBSTRUCTIONS TO VISIBILITY.

  * THESE STATIONS DO NOT REPORT WEATHER SUCH AS RAIN...SNOW OR FOG.

NEZ001>004-019>022-054>056-260800-
NEBRASKA PANHANDLE

CITY           SKY/WX    TMP DP  RH WIND       PRES   REMARKS
SCOTTSBLUFF    PTCLDY    45  32  60 E8        29.81S
ALLIANCE       CLOUDY    39  30  70 SE9       29.81F WCI  33
CHADRON        CLOUDY    52  31  44 SW9       29.79S
KIMBALL        CLOUDY    44  33  65 S7        29.84S
SIDNEY         CLOUDY    40  31  70 S6        29.84F
$$

NEZ057>060-069>072-079>082-260800-
SOUTHWEST NEBRASKA

CITY           SKY/WX    TMP DP  RH WIND       PRES   REMARKS
NORTH PLATTE   CLOUDY    41  38  89 S5        29.89S
IMPERIAL       MOCLDY    37  36  96 SE8       29.87S FOG     WCI  31
LEXINGTON      CLOUDY    41  39  94 SE5       29.90S FOG
MCCOOK         CLOUDY    40  40 100 S8        29.89S FOG     WCI  34
OGALLALA       CLOUDY    43  40  91 E3        29.87R
$$

NEZ005>010-023>029-035>040-094-260800-
NORTH CENTRAL NEBRASKA

CITY           SKY/WX    TMP DP  RH WIND       PRES   REMARKS
VALENTINE      CLOUDY    40  37  89 S10       29.87F WCI  33
AINSWORTH      CLOUDY    38  38 100 S6        29.89S FOG     WCI  34
BROKEN BOW     CLOUDY    40  39  97 SE5       29.89S
O`NEILL        FOG       39  39  99 SE3       29.90F VSB 1
ORD            CLOUDY    39  37  92 E3        29.88F FOG
THEDFORD       FOG       40  39  97 S6        29.89S VSB 1
$$

NEZ041-046>049-061>064-073>077-083>087-260800-
SOUTH CENTRAL NEBRASKA

CITY           SKY/WX    TMP DP  RH WIND       PRES   REMARKS
GRAND ISLAND   FOG       38  38 100 NE3       29.91F VSB 1
AURORA         CLOUDY    38  38 100 NE5       29.90F FOG     WCI  34
HASTINGS       CLOUDY    38  37  97 NE6       29.91S FOG     WCI  33
HEBRON         CLOUDY    39  38  97 CALM      29.91S FOG
HOLDREGE       CLOUDY    39  38  95 E5        29.90S FOG
KEARNEY *      CLOUDY    39  36  87 E3        29.91S
YORK           CLOUDY    37  37 100 NE7       29.91F FOG     WCI  32
$$

NEZ011>018-030>034-042>045-260800-
NORTHEAST NEBRASKA

CITY           SKY/WX    TMP DP  RH WIND       PRES   REMARKS
NORFOLK        CLOUDY    38  36  92 NE7       29.90F FOG     WCI  33
ALBION         FOG       39  38  94 CALM      29.91F VSB 3/4
BLAIR          CLOUDY    39  39  97 N5        29.89S FOG
FREMONT        CLOUDY    39  39 100 NW5       29.92S FOG
TEKAMAH        CLOUDY    40  38  93 NW8       29.91S WCI  34
WAYNE          FOG       38  38  99 NE5       29.92F VSB 1/2 WCI  34
$$

NEZ050>053-065>068-078-088>093-260800-
SOUTHEAST NEBRASKA

CITY           SKY/WX    TMP DP  RH WIND       PRES   REMARKS
LINCOLN        CLOUDY    41  39  93 N8        29.91F
OMAHA EPPLEY   CLOUDY    41  37  86 N6        29.90F
BEATRICE       CLOUDY    41  40  97 NW6       29.90S
FALLS CITY     CLOUDY    42  41  96 N3        29.88F
NEBRASKA CITY  CLOUDY    40  40 100 N3        29.89S FOG
PLATTSMOUTH    CLOUDY    40  38  93 CALM      29.89F FOG
$$

NEZ044-045-051>053-067-260800-
OMAHA AREA

CITY           SKY/WX    TMP DP  RH WIND       PRES   REMARKS
OMAHA EPPLEY   CLOUDY    41  37  86 N6        29.90F
BLAIR          CLOUDY    39  39  97 N5        29.89S FOG
FREMONT        CLOUDY    39  39 100 NW5       29.92S FOG
MILLARD        CLOUDY    42  40  93 N3        29.90F
OFFUTT AFB     CLOUDY    41  39  93 N5        29.89F
PLATTSMOUTH    CLOUDY    40  38  93 CALM      29.89F FOG
WAHOO          CLOUDY    39  38  96 N6        29.91F FOG
$$




USA.gov is the U.S. government's official web portal to all federal, state and local government web resources and services.